DELTA 1 DEB, 7128

Orbit data source: Space-Track

DELTA 1 DEB, 7128 is space debris in SSO originally from a launch on Tue, 06 Nov 1973 UTC launched from the Air Force Western Test Range (AFWTR). Debris objects in space refer to the collection of defunct objects orbiting the Earth. Examples of debris include non-operational satellites, rocket bodies, and fragments generated from explosions, collisions, or faulty payload assembly.

Loading next visibility...
Identifier
7128, 1973-086CS
Orbit
SSO
Country
Flag of USUS
Related business
Manufacturer
Unknown
Mission
Spacecraft
Bus & Motor
Unknown
Mass
Unknown
Launch date (UTC)
1973-11-06 (53 years ago)
Launch vehicle
Unknown
Launch site
Air Force Western Test Range (AFWTR)
Object type
Payload
Rocket body
Debris
Shape & HBR
Unknown shape, 0.1 m
Radar Cross Section
Medium (>0.1 m² and <1 m²)

Expand to show TLE details & history
Last TLE update: 1 day ago

TLE from 1 day ago
0 DELTA 1 DEB
1 07128U 73086CS  26206.25787802 -.00000014  00000-0  16754-3 0  9999
2 07128 101.6321 320.8273 0033214 341.6454  88.6860 12.65929566418740
Epoch: 2026-07-25T06:11Z
TLE epoch observation values (Epoch: 2026-07-25T06:11:20.660Z)
Latitude
67.67099°
Longitude
-104.89721°
Altitude
1,409.607 km
Speed
7.162 km/s
True Right ascension
19h 23m 38s
True Declination
67° 33' 36"
Sunlit
Object was in daylight at epoch
Visualization orbit readout
Latitude
Unknown
Longitude
Unknown
Altitude
Unknown
Speed
Unknown
Apparent Right ascension
Unknown
Apparent Declination
Unknown
Sunlit
N/A
Visualization observer readout
Local Sidereal Time
22:23:02
Azimuth
Unknown
Elevation
Unknown
Doppler factor
Unknown
Orbital elements
Apogee altitude
1,421.906 km
Perigee altitude
1,370.263 km
Semi-major axis
7,774.221 km
Eccentricity
0.00332
Inclination
101.6321°
RAAN
320.8273°
Arg. of periapsis
341.6454°
True anomaly
89.06654°
Mean anomaly
88.686°
Eccentric anomaly
88.87627°
Mean motion
3.16634 °/min
Orbital period
113.7 mins
BSTAR
0.00016754
Loading maneuver chart data...
Computing Atmospheric mass density...
Loading historical data...
Loading historical data...
Loading historical data...
Loading historical data...
Loading historical data...
Loading historical data...
Loading historical data...

Documentation

Showing up to 5 results
|